Change the Weather History Date:

Sunday, May 26, 2013

  Actual Average Record
Temperature  
Mean Temperature 52 °F -  
Max Temperature 64 °F 57 °F 77 °F (1990)
Min Temperature 41 °F 43 °F 36 °F (2001)
Degree Days  
Heating Degree Days 14    
Growing Degree Days 2 (Base 50)    
Moisture  
Dew Point 45 °F    
Average Humidity 77    
Maximum Humidity 97    
Minimum Humidity 56    
Precipitation  
Precipitation 0.00 in - - ()
Sea Level Pressure  
Sea Level Pressure 29.94 in    
Wind  
Wind Speed 3 mph (SE)    
Max Wind Speed 12 mph    
Max Gust Speed -    
Visibility 10 miles    
Events      
Averages and records for this station are not official NWS values.
T = Trace of Precipitation, MM = Missing Value Source: NWS Daily Summary

Daily Weather History Graph

Daily Weather History Graph

Search for Another Location

Airport or City:

Trip Planner

Search our weather history database for the weather conditions in past years. The results will help you decide how hot, cold, wet, or windy it might be!

Date:

Astronomy

May. 26, 2013 Rise Set
Actual Time 4:06 AM AKDT 9:52 PM AKDT
Civil Twilight 2:56 AM AKDT 11:03 PM AKDT
Nautical Twilight 1:31 AM AKDT 12:26 AM AKDT
Astronomical Twilight Sun does not rise Sun does not rise
Moon 11:34 PM AKDT (5/26) 5:51 AM AKDT (5/26)
Length of Visible Light 20h 06m
Length of Day
17h 45m
Waning Gibbous, 96% of the Moon is Illuminated
May 26
Waning Gibbous
May 31
Last Quarter
Jun 8
New
Jun 16
First Quarter
Jun 23
Full

Hourly Weather History & Observations

Time (AKDT) Temp. Dew Point Humidity Pressure Visibility Wind Dir Wind Speed Gust Speed Precip Events Conditions
12:54 AM 45.0 °F 43.0 °F 93% 30.01 in 10.0 mi Calm Calm - N/A   Clear
1:54 AM 44.1 °F 42.1 °F 93% 30.01 in 10.0 mi Calm Calm - N/A   Clear
2:54 AM 43.0 °F 42.1 °F 97% 30.00 in 10.0 mi Calm Calm - N/A   Clear
3:54 AM 41.0 °F 39.9 °F 96% 30.00 in 9.0 mi Calm Calm - N/A   Clear
4:54 AM 43.0 °F 41.0 °F 93% 29.99 in 10.0 mi Calm Calm - N/A   Clear
5:54 AM 43.0 °F 41.0 °F 93% 29.99 in 10.0 mi Calm Calm - N/A   Clear
6:54 AM 46.0 °F 43.0 °F 89% 29.99 in 10.0 mi Calm Calm - N/A   Clear
7:54 AM 51.1 °F 45.0 °F 80% 29.99 in 10.0 mi Calm Calm - N/A   Clear
8:54 AM 50.0 °F 44.1 °F 80% 29.98 in 10.0 mi South 3.5 mph - N/A   Clear
9:54 AM 52.0 °F 46.0 °F 80% 29.96 in 10.0 mi SSE 4.6 mph - N/A   Clear
10:54 AM 54.0 °F 48.0 °F 80% 29.94 in 10.0 mi SSE 5.8 mph - N/A   Clear
11:54 AM 55.9 °F 48.0 °F 75% 29.94 in 10.0 mi SE 9.2 mph - N/A   Clear
12:54 PM 57.9 °F 46.9 °F 67% 29.92 in 10.0 mi SE 9.2 mph - N/A   Clear
1:54 PM 60.1 °F 50.0 °F 69% 29.91 in 10.0 mi SE 8.1 mph - N/A   Clear
2:54 PM 60.1 °F 48.0 °F 64% 29.90 in 10.0 mi SE 11.5 mph - N/A   Clear
3:54 PM 62.1 °F 48.0 °F 60% 29.90 in 10.0 mi SE 9.2 mph - N/A   Clear
4:54 PM 62.1 °F 46.0 °F 56% 29.89 in 10.0 mi ESE 8.1 mph - N/A   Clear
5:54 PM 62.1 °F 48.0 °F 60% 29.88 in 10.0 mi SE 10.4 mph - N/A   Clear
6:54 PM 62.1 °F 46.9 °F 58% 29.87 in 10.0 mi SE 10.4 mph - N/A   Clear
7:54 PM 61.0 °F 46.9 °F 60% 29.87 in 10.0 mi ESE 3.5 mph - N/A   Clear
8:54 PM 57.0 °F 46.9 °F 69% 29.87 in 10.0 mi East 3.5 mph - N/A   Clear
9:54 PM 54.0 °F 46.0 °F 75% 29.88 in 10.0 mi East 6.9 mph - N/A   Clear
10:54 PM 51.1 °F 45.0 °F 80% 29.89 in 10.0 mi ESE 8.1 mph - N/A   Clear
11:54 PM 51.1 °F 44.1 °F 77% 29.90 in 10.0 mi East 3.5 mph - N/A   Clear